Time,TemperatureF,DewpointF,PressureIn,WindDirection,WindDirectionDegrees,WindSpeedMPH,WindSpeedGustMPH,Humidity,HourlyPrecipIn,Conditions,Clouds,dailyrainin,SolarRadiationWatts/m^2,SoftwareType,DateUTC
2013-01-26 00:00:00,32.0,27.0,30.18,SW,221,2.0,-999.0,86,-99.99,,,0.00,0.0,cwc,2013-01-26 07:00:00,
2013-01-26 00:05:00,32.1,27.1,30.18,SW,221,1.0,-999.0,86,-99.99,,,0.00,0.0,cwc,2013-01-26 07:05:00,
2013-01-26 00:10:00,32.0,26.6,30.18,SW,221,1.0,-999.0,85,-99.99,,,0.00,0.0,cwc,2013-01-26 07:10:00,
2013-01-26 00:15:00,31.8,26.0,30.17,SW,221,0.0,-999.0,84,-99.99,,,0.00,0.0,cwc,2013-01-26 07:15:00,
2013-01-26 00:20:00,31.4,25.6,30.17,SW,221,3.0,-999.0,84,-99.99,,,0.00,0.0,cwc,2013-01-26 07:20:00,
2013-01-26 00:25:00,31.2,26.2,30.17,SW,221,2.0,-999.0,86,-99.99,,,0.00,0.0,cwc,2013-01-26 07:25:00,
2013-01-26 00:30:00,31.2,26.2,30.17,SW,221,0.0,-999.0,86,-99.99,,,0.00,0.0,cwc,2013-01-26 07:30:00,
2013-01-26 00:35:00,31.1,26.1,30.17,SW,221,1.0,-999.0,86,-99.99,,,0.00,0.0,cwc,2013-01-26 07:35:00,
2013-01-26 00:40:00,31.1,26.4,30.17,SW,221,0.0,-999.0,87,-99.99,,,0.00,0.0,cwc,2013-01-26 07:40:00,
2013-01-26 00:45:00,31.3,26.6,30.17,SW,221,2.0,-999.0,87,-99.99,,,0.00,0.0,cwc,2013-01-26 07:45:00,
2013-01-26 00:55:00,31.5,26.8,30.17,SW,221,2.0,-999.0,87,-99.99,,,0.00,0.0,cwc,2013-01-26 07:55:00,
2013-01-26 01:00:00,31.4,26.4,30.17,SW,221,2.0,-999.0,86,-99.99,,,0.00,0.0,cwc,2013-01-26 08:00:00,
2013-01-26 01:05:00,31.2,26.2,30.17,SW,221,3.0,-999.0,86,-99.99,,,0.00,0.0,cwc,2013-01-26 08:05:00,
2013-01-26 01:10:00,31.1,26.4,30.17,SW,221,2.0,-999.0,87,-99.99,,,0.00,0.0,cwc,2013-01-26 08:10:00,
2013-01-26 01:15:00,31.1,26.4,30.17,SW,221,1.0,-999.0,87,-99.99,,,0.00,0.0,cwc,2013-01-26 08:15:00,
2013-01-26 01:20:00,31.2,26.5,30.16,SW,221,1.0,-999.0,87,-99.99,,,0.00,0.0,cwc,2013-01-26 08:20:00,
2013-01-26 01:25:00,31.2,26.5,30.16,SW,221,0.0,-999.0,87,-99.99,,,0.00,0.0,cwc,2013-01-26 08:25:00,
2013-01-26 01:30:00,31.0,25.6,30.16,SW,221,0.0,-999.0,85,-99.99,,,0.00,0.0,cwc,2013-01-26 08:30:00,
2013-01-26 01:35:00,30.7,25.3,30.16,SW,221,0.0,-999.0,85,-99.99,,,0.00,0.0,cwc,2013-01-26 08:35:00,
2013-01-26 01:40:00,30.3,25.3,30.16,SW,221,2.0,-999.0,86,-99.99,,,0.00,0.0,cwc,2013-01-26 08:40:00,
2013-01-26 01:45:00,30.2,25.5,30.16,SW,221,0.0,-999.0,87,-99.99,,,0.00,0.0,cwc,2013-01-26 08:45:00,
2013-01-26 01:50:00,30.1,25.4,30.16,SW,221,3.0,-999.0,87,-99.99,,,0.00,0.0,cwc,2013-01-26 08:50:00,
2013-01-26 01:55:00,30.0,25.3,30.16,SW,221,3.0,-999.0,87,-99.99,,,0.00,0.0,cwc,2013-01-26 08:55:00,
2013-01-26 02:00:00,30.2,25.9,30.16,SW,221,0.0,-999.0,88,-99.99,,,0.00,0.0,cwc,2013-01-26 09:00:00,
2013-01-26 02:05:00,30.3,25.6,30.16,SW,221,0.0,-999.0,87,-99.99,,,0.00,0.0,cwc,2013-01-26 09:05:00,
2013-01-26 02:10:00,30.1,25.4,30.16,SW,221,0.0,-999.0,87,-99.99,,,0.00,0.0,cwc,2013-01-26 09:10:00,
2013-01-26 02:15:00,29.9,24.9,30.15,SW,221,2.0,-999.0,86,-99.99,,,0.00,0.0,cwc,2013-01-26 09:15:00,
2013-01-26 02:20:00,29.6,24.9,30.15,SW,221,3.0,-999.0,87,-99.99,,,0.00,0.0,cwc,2013-01-26 09:20:00,
2013-01-26 02:25:00,29.9,25.6,30.15,SW,221,0.0,-999.0,88,-99.99,,,0.00,0.0,cwc,2013-01-26 09:25:00,
2013-01-26 02:30:00,30.0,25.7,30.15,SW,221,0.0,-999.0,88,-99.99,,,0.00,0.0,cwc,2013-01-26 09:30:00,
2013-01-26 02:35:00,30.1,25.8,30.15,SW,221,0.0,-999.0,88,-99.99,,,0.00,0.0,cwc,2013-01-26 09:35:00,
2013-01-26 02:40:00,30.1,25.8,30.15,SW,221,0.0,-999.0,88,-99.99,,,0.00,0.0,cwc,2013-01-26 09:40:00,
2013-01-26 02:45:00,30.0,25.3,30.15,SW,221,0.0,-999.0,87,-99.99,,,0.00,0.0,cwc,2013-01-26 09:45:00,
2013-01-26 02:55:00,29.5,24.8,30.15,SW,221,0.0,-999.0,87,-99.99,,,0.00,0.0,cwc,2013-01-26 09:55:00,
2013-01-26 03:00:00,29.4,24.7,30.14,SW,221,0.0,-999.0,87,-99.99,,,0.00,0.0,cwc,2013-01-26 10:00:00,
2013-01-26 03:05:00,29.2,24.5,30.14,SW,221,0.0,-999.0,87,-99.99,,,0.00,0.0,cwc,2013-01-26 10:05:00,
2013-01-26 03:10:00,28.8,24.1,30.14,SW,221,0.0,-999.0,87,-99.99,,,0.00,0.0,cwc,2013-01-26 10:10:00,
2013-01-26 03:15:00,28.7,24.0,30.13,SW,221,0.0,-999.0,87,-99.99,,,0.00,0.0,cwc,2013-01-26 10:15:00,
2013-01-26 03:20:00,28.5,23.8,30.13,SW,221,0.0,-999.0,87,-99.99,,,0.00,0.0,cwc,2013-01-26 10:20:00,
2013-01-26 03:30:00,28.5,24.5,30.12,SW,221,2.0,-999.0,89,-99.99,,,0.00,0.0,cwc,2013-01-26 10:30:00,
2013-01-26 03:35:00,28.6,24.6,30.12,SW,221,0.0,-999.0,89,-99.99,,,0.00,0.0,cwc,2013-01-26 10:35:00,
2013-01-26 03:40:00,28.5,24.2,30.12,SW,221,0.0,-999.0,88,-99.99,,,0.00,0.0,cwc,2013-01-26 10:40:00,
2013-01-26 03:45:00,28.2,23.9,30.12,SW,221,0.0,-999.0,88,-99.99,,,0.00,0.0,cwc,2013-01-26 10:45:00,
2013-01-26 03:55:00,28.1,23.8,30.12,SW,221,0.0,-999.0,88,-99.99,,,0.00,0.0,cwc,2013-01-26 10:55:00,
2013-01-26 04:00:00,28.0,23.7,30.12,SW,221,0.0,-999.0,88,-99.99,,,0.00,0.0,cwc,2013-01-26 11:00:00,
2013-01-26 04:05:00,27.9,23.6,30.12,SW,221,0.0,-999.0,88,-99.99,,,0.00,0.0,cwc,2013-01-26 11:05:00,
2013-01-26 04:10:00,27.8,23.5,30.11,SW,221,0.0,-999.0,88,-99.99,,,0.00,0.0,cwc,2013-01-26 11:10:00,
2013-01-26 04:15:00,27.8,23.8,30.11,SW,221,2.0,-999.0,89,-99.99,,,0.00,0.0,cwc,2013-01-26 11:15:00,
2013-01-26 04:20:00,27.9,23.9,30.11,SW,221,1.0,-999.0,89,-99.99,,,0.00,0.0,cwc,2013-01-26 11:20:00,
2013-01-26 04:25:00,28.0,24.0,30.11,SW,221,0.0,-999.0,89,-99.99,,,0.00,0.0,cwc,2013-01-26 11:25:00,
2013-01-26 04:30:00,27.9,23.9,30.12,SW,221,0.0,-999.0,89,-99.99,,,0.00,0.0,cwc,2013-01-26 11:30:00,
2013-01-26 04:35:00,27.9,23.9,30.11,SW,221,2.0,-999.0,89,-99.99,,,0.00,0.0,cwc,2013-01-26 11:35:00,
2013-01-26 04:40:00,27.5,23.2,30.12,SW,221,0.0,-999.0,88,-99.99,,,0.00,0.0,cwc,2013-01-26 11:40:00,
2013-01-26 04:45:00,27.3,23.0,30.11,SW,221,2.0,-999.0,88,-99.99,,,0.00,0.0,cwc,2013-01-26 11:45:00,
2013-01-26 04:55:00,27.8,24.2,30.11,SW,221,1.0,-999.0,90,-99.99,,,0.00,0.0,cwc,2013-01-26 11:55:00,
2013-01-26 05:00:00,27.7,23.7,30.11,SW,221,0.0,-999.0,89,-99.99,,,0.00,0.0,cwc,2013-01-26 12:00:00,
2013-01-26 05:05:00,27.4,23.1,30.11,SW,221,2.0,-999.0,88,-99.99,,,0.00,0.0,cwc,2013-01-26 12:05:00,
2013-01-26 05:10:00,27.2,23.2,30.11,SW,221,0.0,-999.0,89,-99.99,,,0.00,0.0,cwc,2013-01-26 12:10:00,
2013-01-26 05:15:00,27.2,23.2,30.12,SW,221,0.0,-999.0,89,-99.99,,,0.00,0.0,cwc,2013-01-26 12:15:00,
2013-01-26 05:20:00,27.3,23.7,30.12,SW,221,2.0,-999.0,90,-99.99,,,0.00,0.0,cwc,2013-01-26 12:20:00,
2013-01-26 05:25:00,27.6,24.0,30.12,SW,221,0.0,-999.0,90,-99.99,,,0.00,0.0,cwc,2013-01-26 12:25:00,
2013-01-26 05:30:00,27.8,24.2,30.12,SW,221,0.0,-999.0,90,-99.99,,,0.00,0.0,cwc,2013-01-26 12:30:00,
2013-01-26 05:35:00,28.1,24.9,30.12,SW,221,0.0,-999.0,91,-99.99,,,0.00,0.0,cwc,2013-01-26 12:35:00,
2013-01-26 05:40:00,28.2,25.0,30.11,SW,221,3.0,-999.0,91,-99.99,,,0.00,0.0,cwc,2013-01-26 12:40:00,
2013-01-26 05:45:00,28.1,24.5,30.12,SW,221,0.0,-999.0,90,-99.99,,,0.00,0.0,cwc,2013-01-26 12:45:00,
2013-01-26 05:50:00,28.1,24.5,30.12,SW,221,0.0,-999.0,90,-99.99,,,0.00,0.0,cwc,2013-01-26 12:50:00,
2013-01-26 05:55:00,28.2,24.6,30.12,SW,221,0.0,-999.0,90,-99.99,,,0.00,0.0,cwc,2013-01-26 12:55:00,
2013-01-26 06:00:00,28.2,24.6,30.12,SW,221,0.0,-999.0,90,-99.99,,,0.00,0.0,cwc,2013-01-26 13:00:00,
2013-01-26 06:05:00,28.4,24.8,30.12,SW,221,0.0,-999.0,90,-99.99,,,0.00,0.0,cwc,2013-01-26 13:05:00,
2013-01-26 06:10:00,28.5,25.3,30.12,SW,221,1.0,-999.0,91,-99.99,,,0.00,0.0,cwc,2013-01-26 13:10:00,
2013-01-26 06:15:00,28.8,25.6,30.12,SW,221,0.0,-999.0,91,-99.99,,,0.00,0.0,cwc,2013-01-26 13:15:00,
2013-01-26 06:20:00,29.1,25.9,30.12,SW,221,0.0,-999.0,91,-99.99,,,0.00,0.0,cwc,2013-01-26 13:20:00,
2013-01-26 06:25:00,29.5,26.3,30.12,SW,221,0.0,-999.0,91,-99.99,,,0.00,0.0,cwc,2013-01-26 13:25:00,
2013-01-26 06:30:00,29.7,26.5,30.12,SW,221,0.0,-999.0,91,-99.99,,,0.00,0.0,cwc,2013-01-26 13:30:00,
2013-01-26 06:35:00,29.9,26.3,30.12,SW,221,0.0,-999.0,90,-99.99,,,0.00,0.0,cwc,2013-01-26 13:35:00,
2013-01-26 06:40:00,29.9,26.3,30.11,SW,221,0.0,-999.0,90,-99.99,,,0.00,0.0,cwc,2013-01-26 13:40:00,
2013-01-26 06:45:00,29.9,25.9,30.12,SW,221,3.0,-999.0,89,-99.99,,,0.00,0.0,cwc,2013-01-26 13:45:00,
2013-01-26 06:55:00,29.9,25.9,30.11,SW,221,0.0,-999.0,89,-99.99,,,0.00,0.0,cwc,2013-01-26 13:55:00,
2013-01-26 07:00:00,30.0,26.0,30.11,SW,221,0.0,-999.0,89,-99.99,,,0.00,0.0,cwc,2013-01-26 14:00:00,
2013-01-26 07:10:00,30.1,26.5,30.11,SW,221,0.0,-999.0,90,-99.99,,,0.00,0.0,cwc,2013-01-26 14:10:00,
2013-01-26 07:15:00,30.2,26.2,30.11,SW,221,0.0,-999.0,89,-99.99,,,0.00,0.0,cwc,2013-01-26 14:15:00,
2013-01-26 07:20:00,30.3,26.3,30.11,SW,221,0.0,-999.0,89,-99.99,,,0.00,0.0,cwc,2013-01-26 14:20:00,
2013-01-26 07:25:00,30.4,26.4,30.11,SW,221,0.0,-999.0,89,-99.99,,,0.00,0.0,cwc,2013-01-26 14:25:00,
2013-01-26 07:30:00,30.5,26.5,30.11,SW,221,0.0,-999.0,89,-99.99,,,0.00,7.0,cwc,2013-01-26 14:30:00,
2013-01-26 07:35:00,30.6,26.6,30.11,SW,221,0.0,-999.0,89,-99.99,,,0.00,9.0,cwc,2013-01-26 14:35:00,
2013-01-26 07:40:00,30.7,26.7,30.11,SW,221,0.0,-999.0,89,-99.99,,,0.00,18.0,cwc,2013-01-26 14:40:00,
2013-01-26 07:45:00,30.8,26.8,30.11,SW,221,0.0,-999.0,89,-99.99,,,0.00,25.0,cwc,2013-01-26 14:45:00,
2013-01-26 07:50:00,31.0,27.0,30.11,SW,221,1.0,-999.0,89,-99.99,,,0.00,44.0,cwc,2013-01-26 14:50:00,
2013-01-26 07:55:00,31.1,27.1,30.10,SW,221,0.0,-999.0,89,-99.99,,,0.00,62.0,cwc,2013-01-26 14:55:00,
2013-01-26 08:00:00,31.3,27.0,30.10,SW,221,0.0,-999.0,88,-99.99,,,0.00,65.0,cwc,2013-01-26 15:00:00,
2013-01-26 08:10:00,31.5,27.2,30.10,SW,221,0.0,-999.0,88,-99.99,,,0.00,51.0,cwc,2013-01-26 15:10:00,
2013-01-26 08:15:00,31.7,27.4,30.10,SW,221,0.0,-999.0,88,-99.99,,,0.00,37.0,cwc,2013-01-26 15:15:00,
2013-01-26 08:20:00,31.9,27.6,30.10,SW,221,0.0,-999.0,88,-99.99,,,0.00,51.0,cwc,2013-01-26 15:20:00,
2013-01-26 08:25:00,32.1,27.8,30.09,SW,221,0.0,-999.0,88,-99.99,,,0.00,72.0,cwc,2013-01-26 15:25:00,
2013-01-26 08:30:00,32.3,28.0,30.09,SW,221,0.0,-999.0,88,-99.99,,,0.00,90.0,cwc,2013-01-26 15:30:00,
2013-01-26 08:35:00,32.6,27.9,30.09,SW,221,0.0,-999.0,87,-99.99,,,0.00,90.0,cwc,2013-01-26 15:35:00,
2013-01-26 08:45:00,33.1,28.4,30.09,SW,221,0.0,-999.0,87,-99.99,,,0.00,98.0,cwc,2013-01-26 15:45:00,
2013-01-26 08:50:00,33.5,28.5,30.09,SW,221,0.0,-999.0,86,-99.99,,,0.00,76.0,cwc,2013-01-26 15:50:00,
2013-01-26 08:55:00,33.9,28.1,30.09,SW,221,0.0,-999.0,84,-99.99,,,0.00,81.0,cwc,2013-01-26 15:55:00,
2013-01-26 09:00:00,34.2,28.4,30.09,SW,221,0.0,-999.0,84,-99.99,,,0.00,93.0,cwc,2013-01-26 16:00:00,
2013-01-26 09:05:00,34.4,28.3,30.09,SW,221,0.0,-999.0,83,-99.99,,,0.00,91.0,cwc,2013-01-26 16:05:00,
2013-01-26 09:10:00,34.7,28.6,30.07,SW,221,0.0,-999.0,83,-99.99,,,0.00,130.0,cwc,2013-01-26 16:10:00,
2013-01-26 09:15:00,35.0,28.5,30.07,SW,221,0.0,-999.0,82,-99.99,,,0.00,188.0,cwc,2013-01-26 16:15:00,
2013-01-26 09:20:00,35.5,29.0,30.08,SW,221,0.0,-999.0,82,-99.99,,,0.00,139.0,cwc,2013-01-26 16:20:00,
2013-01-26 09:25:00,35.9,29.1,30.08,SW,221,0.0,-999.0,81,-99.99,,,0.00,116.0,cwc,2013-01-26 16:25:00,
2013-01-26 09:30:00,36.2,29.0,30.08,SW,221,0.0,-999.0,80,-99.99,,,0.00,111.0,cwc,2013-01-26 16:30:00,
2013-01-26 09:35:00,36.4,28.8,30.08,SW,221,2.0,-999.0,79,-99.99,,,0.00,155.0,cwc,2013-01-26 16:35:00,
2013-01-26 09:40:00,36.7,28.8,30.07,SW,221,2.0,-999.0,78,-99.99,,,0.00,211.0,cwc,2013-01-26 16:40:00,
2013-01-26 09:45:00,36.9,29.0,30.07,SW,221,0.0,-999.0,78,-99.99,,,0.00,244.0,cwc,2013-01-26 16:45:00,
2013-01-26 09:50:00,37.3,29.0,30.07,SW,221,0.0,-999.0,77,-99.99,,,0.00,265.0,cwc,2013-01-26 16:50:00,
2013-01-26 09:55:00,37.8,29.5,30.07,SW,221,2.0,-999.0,77,-99.99,,,0.00,239.0,cwc,2013-01-26 16:55:00,
2013-01-26 10:00:00,38.3,29.3,30.07,SW,222,2.0,-999.0,75,-99.99,,,0.00,251.0,cwc,2013-01-26 17:00:00,
2013-01-26 10:05:00,38.8,29.8,30.06,SW,222,2.0,-999.0,75,-99.99,,,0.00,362.0,cwc,2013-01-26 17:05:00,
2013-01-26 10:10:00,39.4,30.0,30.06,SW,222,2.0,-999.0,74,-99.99,,,0.00,473.0,cwc,2013-01-26 17:10:00,
2013-01-26 10:15:00,40.0,30.3,30.06,East,87,2.0,-999.0,73,-99.99,,,0.00,197.0,cwc,2013-01-26 17:15:00,
2013-01-26 10:25:00,40.7,30.3,30.06,East,87,0.0,-999.0,71,-99.99,,,0.00,195.0,cwc,2013-01-26 17:25:00,
2013-01-26 10:30:00,41.0,30.2,30.06,East,87,0.0,-999.0,70,-99.99,,,0.00,197.0,cwc,2013-01-26 17:30:00,
2013-01-26 10:40:00,41.6,30.4,30.06,East,87,0.0,-999.0,69,-99.99,,,0.00,199.0,cwc,2013-01-26 17:40:00,
2013-01-26 10:45:00,42.0,30.8,30.05,East,87,0.0,-999.0,69,-99.99,,,0.00,239.0,cwc,2013-01-26 17:45:00,
2013-01-26 10:50:00,42.3,30.8,30.05,East,87,0.0,-999.0,68,-99.99,,,0.00,274.0,cwc,2013-01-26 17:50:00,
2013-01-26 10:55:00,42.6,30.7,30.05,East,87,0.0,-999.0,67,-99.99,,,0.00,202.0,cwc,2013-01-26 17:55:00,
2013-01-26 11:05:00,42.7,30.8,30.05,East,89,1.0,-999.0,67,-99.99,,,0.00,183.0,cwc,2013-01-26 18:05:00,
2013-01-26 11:10:00,42.9,31.0,30.05,East,89,0.0,-999.0,67,-99.99,,,0.00,197.0,cwc,2013-01-26 18:10:00,
2013-01-26 11:20:00,43.3,31.1,30.05,East,89,0.0,-999.0,66,-99.99,,,0.00,130.0,cwc,2013-01-26 18:20:00,
2013-01-26 11:25:00,43.6,31.4,30.04,East,89,0.0,-999.0,66,-99.99,,,0.00,118.0,cwc,2013-01-26 18:25:00,
2013-01-26 11:30:00,43.7,31.5,30.04,East,88,0.0,-999.0,66,-99.99,,,0.00,111.0,cwc,2013-01-26 18:30:00,
2013-01-26 11:35:00,43.9,31.3,30.04,East,89,0.0,-999.0,65,-99.99,,,0.00,178.0,cwc,2013-01-26 18:35:00,
2013-01-26 11:40:00,44.1,31.5,30.04,East,89,0.0,-999.0,65,-99.99,,,0.00,186.0,cwc,2013-01-26 18:40:00,
2013-01-26 11:45:00,44.4,31.8,30.03,East,89,0.0,-999.0,65,-99.99,,,0.00,153.0,cwc,2013-01-26 18:45:00,
2013-01-26 11:50:00,44.7,31.7,30.03,East,89,0.0,-999.0,64,-99.99,,,0.00,125.0,cwc,2013-01-26 18:50:00,
2013-01-26 11:55:00,45.0,32.0,30.02,East,88,0.0,-999.0,64,-99.99,,,0.00,114.0,cwc,2013-01-26 18:55:00,
2013-01-26 12:00:00,45.1,32.1,30.02,East,89,0.0,-999.0,64,-99.99,,,0.00,148.0,cwc,2013-01-26 19:00:00,
2013-01-26 12:05:00,45.3,32.0,30.01,East,89,0.0,-999.0,63,-99.99,,,0.00,137.0,cwc,2013-01-26 19:05:00,
2013-01-26 12:10:00,45.5,32.2,30.01,East,89,0.0,-999.0,63,-99.99,,,0.00,100.0,cwc,2013-01-26 19:10:00,
2013-01-26 12:15:00,45.6,31.9,30.01,East,88,0.0,-999.0,62,-99.99,,,0.00,90.0,cwc,2013-01-26 19:15:00,
2013-01-26 12:20:00,45.7,32.0,30.00,East,89,0.0,-999.0,62,-99.99,,,0.00,90.0,cwc,2013-01-26 19:20:00,
2013-01-26 12:25:00,45.6,31.9,30.00,East,89,0.0,-999.0,62,-99.99,,,0.00,139.0,cwc,2013-01-26 19:25:00,
2013-01-26 12:30:00,45.6,31.9,29.99,East,88,0.0,-999.0,62,-99.99,,,0.00,118.0,cwc,2013-01-26 19:30:00,
2013-01-26 12:35:00,45.6,31.9,29.99,East,89,0.0,-999.0,62,-99.99,,,0.00,163.0,cwc,2013-01-26 19:35:00,
2013-01-26 12:40:00,45.5,31.8,29.98,East,89,0.0,-999.0,62,-99.99,,,0.00,135.0,cwc,2013-01-26 19:40:00,
2013-01-26 12:45:00,45.4,32.1,29.98,East,89,0.0,-999.0,63,-99.99,,,0.00,91.0,cwc,2013-01-26 19:45:00,
2013-01-26 12:50:00,45.4,32.8,29.98,East,88,0.0,-999.0,65,-99.99,,,0.00,74.0,cwc,2013-01-26 19:50:00,
2013-01-26 12:55:00,45.4,33.5,29.98,East,88,0.0,-999.0,67,-99.99,,,0.00,77.0,cwc,2013-01-26 19:55:00,
2013-01-26 13:00:00,45.4,33.5,29.98,East,89,0.0,-999.0,67,-99.99,,,0.00,74.0,cwc,2013-01-26 20:00:00,
2013-01-26 13:05:00,45.0,34.6,29.98,East,89,0.0,-999.0,71,-99.99,,,0.00,90.0,cwc,2013-01-26 20:05:00,
2013-01-26 13:10:00,44.7,33.9,29.97,East,88,0.0,-999.0,70,-99.99,,,0.01,62.0,cwc,2013-01-26 20:10:00,
2013-01-26 13:15:00,44.5,35.1,29.97,East,89,0.0,-999.0,74,-99.99,,,0.01,113.0,cwc,2013-01-26 20:15:00,
2013-01-26 13:20:00,44.2,35.6,29.97,East,89,0.0,-999.0,76,-99.99,,,0.01,81.0,cwc,2013-01-26 20:20:00,
2013-01-26 13:25:00,43.6,35.0,29.98,East,92,2.0,-999.0,76,-99.99,,,0.02,72.0,cwc,2013-01-26 20:25:00,
2013-01-26 13:30:00,43.1,35.5,29.97,East,92,1.0,-999.0,79,-99.99,,,0.03,88.0,cwc,2013-01-26 20:30:00,
2013-01-26 13:35:00,42.7,35.1,29.96,East,92,0.0,-999.0,79,-99.99,,,0.04,107.0,cwc,2013-01-26 20:35:00,
2013-01-26 13:40:00,42.3,35.1,29.96,East,91,0.0,-999.0,80,-99.99,,,0.04,135.0,cwc,2013-01-26 20:40:00,
2013-01-26 13:45:00,42.0,35.2,29.96,East,91,0.0,-999.0,81,-99.99,,,0.04,153.0,cwc,2013-01-26 20:45:00,
2013-01-26 13:50:00,42.0,35.9,29.96,East,92,0.0,-999.0,83,-99.99,,,0.05,125.0,cwc,2013-01-26 20:50:00,
2013-01-26 13:55:00,42.1,36.3,29.96,East,92,0.0,-999.0,84,-99.99,,,0.05,105.0,cwc,2013-01-26 20:55:00,
2013-01-26 14:00:00,41.9,35.4,29.95,East,92,0.0,-999.0,82,-99.99,,,0.05,105.0,cwc,2013-01-26 21:00:00,
2013-01-26 14:05:00,41.8,36.0,29.95,East,91,2.0,-999.0,84,-99.99,,,0.05,111.0,cwc,2013-01-26 21:05:00,
2013-01-26 14:10:00,41.8,36.4,29.94,East,92,2.0,-999.0,85,-99.99,,,0.05,95.0,cwc,2013-01-26 21:10:00,
2013-01-26 14:15:00,41.7,36.3,29.94,East,92,0.0,-999.0,85,-99.99,,,0.05,76.0,cwc,2013-01-26 21:15:00,
2013-01-26 14:20:00,41.7,36.7,29.94,East,91,0.0,-999.0,86,-99.99,,,0.05,95.0,cwc,2013-01-26 21:20:00,
2013-01-26 14:25:00,41.7,36.7,29.94,East,91,0.0,-999.0,86,-99.99,,,0.05,160.0,cwc,2013-01-26 21:25:00,
2013-01-26 14:30:00,41.8,36.8,29.93,East,92,1.0,-999.0,86,-99.99,,,0.05,135.0,cwc,2013-01-26 21:30:00,
2013-01-26 14:35:00,41.7,36.7,29.93,East,92,0.0,-999.0,86,-99.99,,,0.05,107.0,cwc,2013-01-26 21:35:00,
2013-01-26 14:40:00,41.7,36.7,29.93,East,92,0.0,-999.0,86,-99.99,,,0.05,74.0,cwc,2013-01-26 21:40:00,
2013-01-26 14:45:00,41.7,37.0,29.93,East,92,0.0,-999.0,87,-99.99,,,0.05,49.0,cwc,2013-01-26 21:45:00,
2013-01-26 14:50:00,41.8,37.1,29.93,East,92,0.0,-999.0,87,-99.99,,,0.05,49.0,cwc,2013-01-26 21:50:00,
2013-01-26 14:55:00,41.7,37.0,29.92,East,91,0.0,-999.0,87,-99.99,,,0.06,56.0,cwc,2013-01-26 21:55:00,
2013-01-26 15:00:00,41.7,37.0,29.92,East,91,0.0,-999.0,87,-99.99,,,0.06,88.0,cwc,2013-01-26 22:00:00,
2013-01-26 15:05:00,41.8,37.1,29.92,East,92,0.0,-999.0,87,-99.99,,,0.06,77.0,cwc,2013-01-26 22:05:00,
2013-01-26 15:10:00,41.8,37.5,29.92,East,92,0.0,-999.0,88,-99.99,,,0.06,67.0,cwc,2013-01-26 22:10:00,
2013-01-26 15:15:00,41.8,37.1,29.92,East,92,0.0,-999.0,87,-99.99,,,0.06,60.0,cwc,2013-01-26 22:15:00,
2013-01-26 15:20:00,41.8,37.5,29.92,East,91,0.0,-999.0,88,-99.99,,,0.06,81.0,cwc,2013-01-26 22:20:00,
2013-01-26 15:25:00,41.9,37.6,29.92,East,92,0.0,-999.0,88,-99.99,,,0.06,98.0,cwc,2013-01-26 22:25:00,
2013-01-26 15:30:00,42.0,38.0,29.92,East,92,0.0,-999.0,89,-99.99,,,0.06,95.0,cwc,2013-01-26 22:30:00,
2013-01-26 15:35:00,42.1,38.1,29.92,East,92,0.0,-999.0,89,-99.99,,,0.06,107.0,cwc,2013-01-26 22:35:00,
2013-01-26 15:40:00,42.2,38.2,29.92,East,91,0.0,-999.0,89,-99.99,,,0.06,56.0,cwc,2013-01-26 22:40:00,
2013-01-26 15:45:00,42.3,38.3,29.91,East,92,2.0,-999.0,89,-99.99,,,0.06,86.0,cwc,2013-01-26 22:45:00,
2013-01-26 15:50:00,42.2,37.9,29.91,East,92,2.0,-999.0,88,-99.99,,,0.06,105.0,cwc,2013-01-26 22:50:00,
2013-01-26 15:55:00,42.0,37.7,29.91,East,91,2.0,-999.0,88,-99.99,,,0.06,70.0,cwc,2013-01-26 22:55:00,
2013-01-26 16:00:00,42.0,37.7,29.91,East,92,0.0,-999.0,88,-99.99,,,0.06,49.0,cwc,2013-01-26 23:00:00,
2013-01-26 16:05:00,41.9,37.6,29.91,East,92,0.0,-999.0,88,-99.99,,,0.06,39.0,cwc,2013-01-26 23:05:00,
2013-01-26 16:10:00,41.9,37.6,29.91,East,92,0.0,-999.0,88,-99.99,,,0.06,63.0,cwc,2013-01-26 23:10:00,
2013-01-26 16:15:00,41.9,37.9,29.91,East,91,0.0,-999.0,89,-99.99,,,0.06,35.0,cwc,2013-01-26 23:15:00,
2013-01-26 16:20:00,41.9,37.6,29.91,East,92,0.0,-999.0,88,-99.99,,,0.06,32.0,cwc,2013-01-26 23:20:00,
2013-01-26 16:25:00,41.8,37.5,29.91,East,92,0.0,-999.0,88,-99.99,,,0.06,32.0,cwc,2013-01-26 23:25:00,
2013-01-26 16:30:00,41.8,37.8,29.91,East,92,0.0,-999.0,89,-99.99,,,0.06,30.0,cwc,2013-01-26 23:30:00,
2013-01-26 16:35:00,41.8,37.8,29.91,East,91,0.0,-999.0,89,-99.99,,,0.06,70.0,cwc,2013-01-26 23:35:00,
2013-01-26 16:40:00,41.7,37.4,29.90,East,92,0.0,-999.0,88,-99.99,,,0.06,23.0,cwc,2013-01-26 23:40:00,
2013-01-26 16:45:00,41.6,37.3,29.91,East,92,0.0,-999.0,88,-99.99,,,0.06,18.0,cwc,2013-01-26 23:45:00,
2013-01-26 16:50:00,41.6,37.3,29.90,East,92,0.0,-999.0,88,-99.99,,,0.06,32.0,cwc,2013-01-26 23:50:00,
2013-01-26 16:55:00,41.5,37.5,29.90,East,91,0.0,-999.0,89,-99.99,,,0.06,16.0,cwc,2013-01-26 23:55:00,
2013-01-26 17:00:00,41.5,37.5,29.90,East,92,1.0,-999.0,89,-99.99,,,0.06,14.0,cwc,2013-01-27 00:00:00,
2013-01-26 17:05:00,41.5,37.9,29.90,East,91,0.0,-999.0,90,-99.99,,,0.06,5.0,cwc,2013-01-27 00:05:00,
2013-01-26 17:10:00,41.6,38.0,29.90,East,91,0.0,-999.0,90,-99.99,,,0.06,0.0,cwc,2013-01-27 00:10:00,
2013-01-26 17:15:00,41.6,38.0,29.89,East,92,0.0,-999.0,90,-99.99,,,0.06,0.0,cwc,2013-01-27 00:15:00,
2013-01-26 17:20:00,41.6,37.6,29.90,East,92,2.0,-999.0,89,-99.99,,,0.06,0.0,cwc,2013-01-27 00:20:00,
2013-01-26 17:25:00,41.3,37.3,29.90,East,92,1.0,-999.0,89,-99.99,,,0.06,0.0,cwc,2013-01-27 00:25:00,
2013-01-26 17:30:00,41.2,37.6,29.89,East,91,1.0,-999.0,90,-99.99,,,0.07,0.0,cwc,2013-01-27 00:30:00,
2013-01-26 17:35:00,41.2,37.6,29.90,East,92,0.0,-999.0,90,-99.99,,,0.07,0.0,cwc,2013-01-27 00:35:00,
2013-01-26 17:40:00,41.1,37.5,29.90,East,92,0.0,-999.0,90,-99.99,,,0.07,0.0,cwc,2013-01-27 00:40:00,
2013-01-26 17:45:00,41.0,39.2,29.90,East,91,0.0,-999.0,95,-99.99,,,0.07,0.0,cwc,2013-01-27 00:45:00,
2013-01-26 17:50:00,41.0,37.8,29.90,East,91,0.0,-999.0,91,-99.99,,,0.07,0.0,cwc,2013-01-27 00:50:00,
2013-01-26 17:55:00,40.9,37.3,29.90,East,91,0.0,-999.0,90,-99.99,,,0.07,0.0,cwc,2013-01-27 00:55:00,
2013-01-26 18:00:00,40.7,37.1,29.90,East,92,0.0,-999.0,90,-99.99,,,0.07,0.0,cwc,2013-01-27 01:00:00,
2013-01-26 18:05:00,40.6,37.4,29.90,East,92,0.0,-999.0,91,-99.99,,,0.07,0.0,cwc,2013-01-27 01:05:00,
2013-01-26 18:10:00,40.6,37.4,29.89,East,92,0.0,-999.0,91,-99.99,,,0.08,0.0,cwc,2013-01-27 01:10:00,
2013-01-26 18:15:00,40.6,37.4,29.89,East,92,1.0,-999.0,91,-99.99,,,0.08,0.0,cwc,2013-01-27 01:15:00,
2013-01-26 18:20:00,40.5,37.3,29.89,East,92,2.0,-999.0,91,-99.99,,,0.08,0.0,cwc,2013-01-27 01:20:00,
2013-01-26 18:25:00,40.5,37.6,29.90,East,92,1.0,-999.0,92,-99.99,,,0.08,0.0,cwc,2013-01-27 01:25:00,
2013-01-26 18:30:00,40.6,37.7,29.89,East,92,0.0,-999.0,92,-99.99,,,0.08,0.0,cwc,2013-01-27 01:30:00,
2013-01-26 18:35:00,40.6,37.7,29.90,East,92,2.0,-999.0,92,-99.99,,,0.08,0.0,cwc,2013-01-27 01:35:00,
2013-01-26 18:40:00,40.4,37.2,29.89,East,96,3.0,-999.0,91,-99.99,,,0.08,0.0,cwc,2013-01-27 01:40:00,
2013-01-26 18:45:00,40.4,37.5,29.90,ESE,115,1.0,-999.0,92,-99.99,,,0.08,0.0,cwc,2013-01-27 01:45:00,
2013-01-26 18:50:00,40.8,38.3,29.91,ESE,115,3.0,-999.0,93,-99.99,,,0.08,0.0,cwc,2013-01-27 01:50:00,
2013-01-26 18:55:00,41.4,38.9,29.93,SSW,203,3.0,-999.0,93,-99.99,,,0.15,0.0,cwc,2013-01-27 01:55:00,
2013-01-26 19:00:00,42.3,40.1,29.95,SW,219,7.0,-999.0,94,-99.99,,,0.30,0.0,cwc,2013-01-27 02:00:00,
2013-01-26 19:05:00,42.7,39.8,29.94,SSW,192,6.0,-999.0,92,-99.99,,,0.36,0.0,cwc,2013-01-27 02:05:00,
2013-01-26 19:10:00,42.9,40.0,29.94,SSW,200,6.0,-999.0,92,-99.99,,,0.38,0.0,cwc,2013-01-27 02:10:00,
2013-01-26 19:15:00,43.1,40.2,29.95,WSW,246,8.0,-999.0,92,-99.99,,,0.40,0.0,cwc,2013-01-27 02:15:00,
2013-01-26 19:20:00,43.4,40.5,29.95,SW,227,0.0,-999.0,92,-99.99,,,0.41,0.0,cwc,2013-01-27 02:20:00,
2013-01-26 19:25:00,43.5,40.6,29.95,SW,229,6.0,-999.0,92,-99.99,,,0.43,0.0,cwc,2013-01-27 02:25:00,
2013-01-26 19:30:00,43.3,40.1,29.95,WSW,257,3.0,-999.0,91,-99.99,,,0.44,0.0,cwc,2013-01-27 02:30:00,
2013-01-26 19:40:00,42.9,38.9,29.93,West,259,0.0,-999.0,89,-99.99,,,0.44,0.0,cwc,2013-01-27 02:40:00,
2013-01-26 19:45:00,42.6,39.0,29.92,West,259,0.0,-999.0,90,-99.99,,,0.44,0.0,cwc,2013-01-27 02:45:00,
2013-01-26 19:50:00,42.4,38.8,29.93,West,259,3.0,-999.0,90,-99.99,,,0.44,0.0,cwc,2013-01-27 02:50:00,
2013-01-26 19:55:00,42.2,39.0,29.94,West,259,3.0,-999.0,91,-99.99,,,0.44,0.0,cwc,2013-01-27 02:55:00,
2013-01-26 20:00:00,42.1,38.9,29.95,West,259,3.0,-999.0,91,-99.99,,,0.44,0.0,cwc,2013-01-27 03:00:00,
2013-01-26 20:05:00,42.0,38.8,29.95,West,259,3.0,-999.0,91,-99.99,,,0.44,0.0,cwc,2013-01-27 03:05:00,
2013-01-26 20:10:00,41.7,38.5,29.95,West,259,4.0,-999.0,91,-99.99,,,0.44,0.0,cwc,2013-01-27 03:10:00,
2013-01-26 20:15:00,41.6,38.4,29.95,WSW,258,6.0,-999.0,91,-99.99,,,0.44,0.0,cwc,2013-01-27 03:15:00,
2013-01-26 20:20:00,41.7,38.8,29.95,SW,234,4.0,-999.0,92,-99.99,,,0.44,0.0,cwc,2013-01-27 03:20:00,
2013-01-26 20:25:00,41.8,38.9,29.94,SW,235,0.0,-999.0,92,-99.99,,,0.44,0.0,cwc,2013-01-27 03:25:00,
2013-01-26 20:30:00,41.6,38.4,29.94,SW,234,0.0,-999.0,91,-99.99,,,0.44,0.0,cwc,2013-01-27 03:30:00,
2013-01-26 20:35:00,41.4,38.2,29.94,SW,234,0.0,-999.0,91,-99.99,,,0.44,0.0,cwc,2013-01-27 03:35:00,
2013-01-26 20:40:00,41.3,38.4,29.94,SW,235,2.0,-999.0,92,-99.99,,,0.44,0.0,cwc,2013-01-27 03:40:00,
2013-01-26 20:45:00,41.3,38.4,29.94,SW,235,0.0,-999.0,92,-99.99,,,0.44,0.0,cwc,2013-01-27 03:45:00,
2013-01-26 20:50:00,41.2,38.0,29.94,SW,235,0.0,-999.0,91,-99.99,,,0.44,0.0,cwc,2013-01-27 03:50:00,
2013-01-26 20:55:00,40.8,37.6,29.94,SW,236,0.0,-999.0,91,-99.99,,,0.44,0.0,cwc,2013-01-27 03:55:00,
2013-01-26 21:00:00,40.7,37.5,29.94,SW,236,0.0,-999.0,91,-99.99,,,0.44,0.0,cwc,2013-01-27 04:00:00,
2013-01-26 21:05:00,40.6,37.4,29.94,SW,236,0.0,-999.0,91,-99.99,,,0.44,0.0,cwc,2013-01-27 04:05:00,
2013-01-26 21:10:00,40.4,37.2,29.94,SW,236,0.0,-999.0,91,-99.99,,,0.44,0.0,cwc,2013-01-27 04:10:00,
2013-01-26 21:15:00,40.2,37.0,29.93,SW,236,0.0,-999.0,91,-99.99,,,0.44,0.0,cwc,2013-01-27 04:15:00,
2013-01-26 21:20:00,40.0,36.8,29.93,SW,236,0.0,-999.0,91,-99.99,,,0.44,0.0,cwc,2013-01-27 04:20:00,
2013-01-26 21:30:00,40.0,37.1,29.93,SW,236,0.0,-999.0,92,-99.99,,,0.44,0.0,cwc,2013-01-27 04:30:00,
2013-01-26 21:35:00,39.8,36.9,29.93,SW,236,0.0,-999.0,92,-99.99,,,0.44,0.0,cwc,2013-01-27 04:35:00,
2013-01-26 21:40:00,39.6,36.7,29.93,SW,236,0.0,-999.0,92,-99.99,,,0.44,0.0,cwc,2013-01-27 04:40:00,
2013-01-26 21:45:00,39.5,36.6,29.93,SW,236,0.0,-999.0,92,-99.99,,,0.44,0.0,cwc,2013-01-27 04:45:00,
2013-01-26 21:55:00,39.2,36.3,29.92,SW,236,1.0,-999.0,92,-99.99,,,0.44,0.0,cwc,2013-01-27 04:55:00,
2013-01-26 22:05:00,39.2,36.7,29.92,SW,236,0.0,-999.0,93,-99.99,,,0.44,0.0,cwc,2013-01-27 05:05:00,
2013-01-26 22:15:00,39.0,36.1,29.91,SW,236,0.0,-999.0,92,-99.99,,,0.44,0.0,cwc,2013-01-27 05:15:00,
2013-01-26 22:20:00,39.2,36.7,29.91,SW,236,0.0,-999.0,93,-99.99,,,0.44,0.0,cwc,2013-01-27 05:20:00,
2013-01-26 22:25:00,39.4,36.9,29.91,SW,236,3.0,-999.0,93,-99.99,,,0.44,0.0,cwc,2013-01-27 05:25:00,
2013-01-26 22:30:00,40.2,38.0,29.90,SW,233,5.0,-999.0,94,-99.99,,,0.44,0.0,cwc,2013-01-27 05:30:00,
2013-01-26 22:35:00,40.9,38.7,29.90,SW,219,3.0,-999.0,94,-99.99,,,0.44,0.0,cwc,2013-01-27 05:35:00,
2013-01-26 22:40:00,41.3,38.8,29.90,SW,219,2.0,-999.0,93,-99.99,,,0.44,0.0,cwc,2013-01-27 05:40:00,
2013-01-26 22:45:00,41.6,38.4,29.91,SW,218,6.0,-999.0,91,-99.99,,,0.44,0.0,cwc,2013-01-27 05:45:00,
2013-01-26 22:50:00,42.2,38.2,29.91,SSW,206,5.0,-999.0,89,-99.99,,,0.44,0.0,cwc,2013-01-27 05:50:00,
2013-01-26 22:55:00,42.7,38.4,29.91,SSW,211,4.0,-999.0,88,-99.99,,,0.44,0.0,cwc,2013-01-27 05:55:00,
2013-01-26 23:00:00,43.1,38.1,29.91,SSW,211,4.0,-999.0,86,-99.99,,,0.44,0.0,cwc,2013-01-27 06:00:00,
2013-01-26 23:05:00,43.1,37.7,29.90,SSW,210,4.0,-999.0,85,-99.99,,,0.44,0.0,cwc,2013-01-27 06:05:00,
2013-01-26 23:10:00,43.0,37.6,29.90,SSW,212,3.0,-999.0,85,-99.99,,,0.44,0.0,cwc,2013-01-27 06:10:00,
2013-01-26 23:15:00,43.4,37.3,29.90,SW,223,8.0,-999.0,83,-99.99,,,0.44,0.0,cwc,2013-01-27 06:15:00,
2013-01-26 23:20:00,44.1,37.3,29.90,SSW,211,7.0,-999.0,81,-99.99,,,0.44,0.0,cwc,2013-01-27 06:20:00,
2013-01-26 23:25:00,44.4,36.5,29.90,SW,223,8.0,-999.0,78,-99.99,,,0.44,0.0,cwc,2013-01-27 06:25:00,
2013-01-26 23:30:00,44.6,36.3,29.90,SW,219,8.0,-999.0,77,-99.99,,,0.44,0.0,cwc,2013-01-27 06:30:00,
2013-01-26 23:35:00,44.9,36.6,29.91,SW,223,8.0,-999.0,77,-99.99,,,0.44,0.0,cwc,2013-01-27 06:35:00,
2013-01-26 23:45:00,45.0,36.0,29.90,SW,225,7.0,-999.0,75,-99.99,,,0.44,0.0,cwc,2013-01-27 06:45:00,
2013-01-26 23:50:00,45.1,35.7,29.90,SSW,199,5.0,-999.0,74,-99.99,,,0.44,0.0,cwc,2013-01-27 06:50:00,
2013-01-26 23:55:00,45.2,35.5,29.90,SW,223,9.0,-999.0,73,-99.99,,,0.44,0.0,cwc,2013-01-27 06:55:00,